This is the latest recevied weather packets stored in our database for station/object OE-11179. If no packets are shown the sender has not sent any weather packets the latest 10 day(s).
| Time | Temp. | Humidity | Pressure | Rain* | Wind** | Luminosity | Snow |
|---|---|---|---|---|---|---|---|
| 1787780505 | 14.44° C | 92% | - | 0 mm | - | - | - |
| 1787780132 | 15° C | 92% | - | 0 mm | - | - | - |
| 1787779531 | 15° C | 90% | - | 0 mm | - | - | - |
| 1787778705 | 15.56° C | 91% | - | 0 mm | - | - | - |
| 1787778338 | 15° C | 89% | - | 0 mm | - | - | - |
| 1787777732 | 15.56° C | 89% | - | 0 mm | - | - | - |
| 1787776905 | 16.11° C | 88% | - | 0 mm | - | - | - |
| 1787776531 | 15.56° C | 88% | - | 0 mm | - | - | - |
| 1787775932 | 15.56° C | 89% | - | 0 mm | - | - | - |
| 1787775106 | 15.56° C | 88% | - | 0 mm | - | - | - |
| 1787774732 | 16.11° C | 86% | - | 0 mm | - | - | - |
| 1787774132 | 16.67° C | 85% | - | 0 mm | - | - | - |
| 1787773305 | 16.67° C | 86% | - | 0 mm | - | - | - |
| 1787772932 | 16.67° C | 85% | - | 0 mm | - | - | - |
| 1787772332 | 16.67° C | 83% | - | 0 mm | - | - | - |
| 1787771505 | 17.22° C | 83% | - | 0 mm | - | - | - |
| 1787771132 | 17.78° C | 81% | - | 0 mm | - | - | - |
| 1787770532 | 17.78° C | 81% | - | 0 mm | - | - | - |
| 1787769705 | 17.78° C | 79% | - | 0 mm | - | - | - |
| 1787769332 | 17.78° C | 81% | - | 0 mm | - | - | - |
| 1787768732 | 17.22° C | 83% | - | 0 mm | - | - | - |
| 1787767906 | 17.78° C | 80% | - | 0 mm | - | - | - |
| 1787767532 | 18.33° C | 79% | - | 0 mm | - | - | - |
| 1787766932 | 18.89° C | 75% | - | 0 mm | - | - | - |
| 1787766105 | 19.44° C | 72% | - | 0 mm | - | - | - |
* Rain latest hour (hover to see other rain measurements)
** Current wind speed in m/s (hover to see current wind gust speed)